This is the latest recevied weather packets stored in our database for station/object VK2XSE. If no packets are shown the sender has not sent any weather packets the latest 10 day(s).
| Time | Temp. | Humidity | Pressure | Rain* | Wind** | Luminosity | Snow |
|---|---|---|---|---|---|---|---|
| 1777536917 | 22.78° C | 43% | 1024.6 hPa | 0 mm | - | 0 W/m² | - |
| 1777536317 | 23.33° C | 42% | 1024.7 hPa | 0 mm | - | 0 W/m² | - |
| 1777535717 | 23.33° C | 42% | 1024.6 hPa | 0 mm | - | 0 W/m² | - |
| 1777535117 | 24.44° C | 40% | 1024.6 hPa | 0 mm | - | 0 W/m² | - |
| 1777534517 | 25° C | 40% | 1024.6 hPa | 0 mm | - | 3 W/m² | - |
| 1777533917 | 25.56° C | 38% | 1024.6 hPa | 0 mm | - | 13 W/m² | - |
| 1777533317 | 26.11° C | 36% | 1024.6 hPa | 0 mm | - | 24 W/m² | - |
| 1777532717 | 26.11° C | 37% | 1024.6 hPa | 0 mm | - | 38 W/m² | - |
| 1777532117 | 26.67° C | 36% | 1024.6 hPa | 0 mm | - | 77 W/m² | - |
| 1777531517 | 26.67° C | 36% | 1024.6 hPa | 0 mm | - | 120 W/m² | - |
| 1777530917 | 26.67° C | 36% | 1024.6 hPa | 0 mm | - | 117 W/m² | - |
| 1777530317 | 26.67° C | 36% | 1024.6 hPa | 0 mm | - | 101 W/m² | - |
| 1777529717 | 27.22° C | 35% | 1024.6 hPa | 0 mm | - | 106 W/m² | - |
| 1777529117 | 27.22° C | 34% | 1024.7 hPa | 0 mm | - | 160 W/m² | - |
| 1777528517 | 27.22° C | 35% | 1024.8 hPa | 0 mm | - | 242 W/m² | - |
| 1777527917 | 27.22° C | 34% | 1024.8 hPa | 0 mm | - | 237 W/m² | - |
| 1777527317 | 27.78° C | 34% | 1024.9 hPa | 0 mm | - | 275 W/m² | - |
| 1777526717 | 27.22° C | 34% | 1024.9 hPa | 0 mm | - | 403 W/m² | - |
| 1777526117 | 27.22° C | 34% | 1024.9 hPa | 0 mm | - | 328 W/m² | - |
| 1777525516 | 27.78° C | 34% | 1025 hPa | 0 mm | - | 242 W/m² | - |
| 1777524918 | 27.78° C | 34% | 1025 hPa | 0 mm | - | 184 W/m² | - |
| 1777524319 | 28.33° C | 33% | 1025 hPa | 0 mm | - | 283 W/m² | - |
| 1777523718 | 28.33° C | 32% | 1025.1 hPa | 0 mm | - | 191 W/m² | - |
| 1777523118 | 28.89° C | 32% | 1025.1 hPa | 0 mm | - | 425 W/m² | - |
| 1777522518 | 28.89° C | 32% | 1025.3 hPa | 0 mm | - | 468 W/m² | - |
* Rain latest hour (hover to see other rain measurements)
** Current wind speed in m/s (hover to see current wind gust speed)